sat.trackr.live / text

‹ back to catalog

GSAT0102 (GALILEO-FM2)

NORAD 37847 · 2011-060B

PAYLOAD ACTIVE UNKNOWN

§ Identity

Operator
Country
ESA
Launch date
2011-10-21
Launch site
FRGUI
Launch vehicle
Mass (kg)
RCS (m²)
20.11

Purposes: earth_obs, nav

External: N2YO · Heavens-Above · Gunter

§ Orbital elements

Epoch: 2026-09-19T17:48:24.361632Z

Period
844.69 min
Inclination
56.9563°
Eccentricity
0.0002362
Mean motion
1.70476155 rev/d
Perigee alt
23,214.9 km
Apogee alt
23,228.9 km
Semi-major
29,600.1 km
B*
0.0000e+0
RAAN
339.1974°
Arg perigee
310.0842°
Mean anomaly
13.8998°
Rev number
9,273

§ Raw data

GSAT0102 (GALILEO-FM2)1 37847U 11060B   26262.74194863 -.00000089  00000+0  00000+0 0  99932 37847  56.9563 339.1974 0002362 310.0842  13.8998  1.70476155 92737

JSON: /api/v1/satellites/37847 · /tle

For live sub-satellite position, see the globe view (requires WebGL).

§ Visibility from observer

Set your observer location to see the next 7 days of passes ≥ 10°. The values pass through the URL so the page stays shareable.

No JS? Fill the form by hand. The geolocation button needs JavaScript.